|
NORAD ID: 36407 Int'l Code: 2010-007H
Perigee: 607.6 km
Apogee: 18,932.1 km
Inclination: 65.0 °
Period: 340.1 minutes
Semi major axis: 16140 km
Launch date: March 1, 2010
Source: Commonwealth of Independent States (former USSR) (CIS)
Note: This is a ROCKET BODY
Two Line Element Set (TLE):
1 36407U 10007H 13142.25155343 .00000048 00000-0 20358-3 0 7853
2 36407 064.9989 083.0449 5676433 142.9937 006.5138 04.23362271 49808
Source:
NASA's NSSDC Master Catalog entry for SL-12 R/B(AUX MOTOR)
|